Regional Weather Roundup
Issued by NWS

Home | Current Version | Previous Version | Graphics & Text | Print | Product List | Glossary On
Versions: 1 2 3 4 5 6 7 8 9 10 11 12 13 14 15 16 17 18 19 20 21 22 23 24 25 26 27 28 29 30 31 32 33 34 35 36 37 38 39 40 41 42 43 44 45 46 47 48 49 50
172
ASUS43 KLSX 121307
RWRMO

WEATHER SUMMARY FOR MISSOURI
NATIONAL WEATHER SERVICE SPRINGFIELD MO
700 AM CST FRI FEB 12 2016

NOTE: "FAIR" INDICATES FEW OR NO CLOUDS BELOW 12,000 FEET WITH NO
       SIGNIFICANT WEATHER AND/OR OBSTRUCTIONS TO VISIBILITY.
       CURRENT SKY AND/OR WEATHER CONDITIONS ARE NOT AVAILABLE FOR
       CHILLICOTHE AND FARMINGTON.

MOZ001>031-035>038-043-044-053-054-121400-
...NORTHERN AND WESTERN MISSOURI...

CITY           SKY/WX    TMP DP  RH WIND       PRES   REMARKS
KANSAS CTY INT CLOUDY    29  22  75 N10       30.31R WCI  20
KANSAS C DTWN  CLOUDY    30  21  69 N5        30.32R WCI  25
LEE`S SUMMIT   CLEAR     26  20  77 NW6       30.30R WCI  19
ST JOSEPH      CLOUDY    29  20  69 N12       30.34R WCI  19
CHILLICOTHE      N/A     26  19  74 NW3       30.32R
KIRKSVILLE     CLOUDY    22  17  81 W5        30.26R WCI  16

$$
MOZ066>068-077>081-088>096-101>105-121400-
...SOUTHWEST MISSOURI...

CITY           SKY/WX    TMP DP  RH WIND       PRES   REMARKS
SPRINGFIELD    CLEAR     28  20  71 NW5       30.20R WCI  23
JOPLIN         CLEAR     25  21  85 CALM      30.25R

$$
MOZ032>034-039>042-045>050-055>058-069>072-121400-
...CENTRAL MISSOURI...

CITY           SKY/WX    TMP DP  RH WIND       PRES   REMARKS
COLUMBIA       CLOUDY    25  22  88 N3        30.24R
JEFFERSON CITY CLOUDY    27  22  81 NW3       30.26R
ROLLA          CLOUDY    26  23  88 NW6       30.19R WCI  19
SEDALIA        CLOUDY    28  23  81 NW7       30.27R WCI  21
WHITEMAN AFB   MOCLDY    26  24  91 NW7       30.27R WCI  18
WARRENSBURG    CLOUDY    27  23  86 NW7       30.30R WCI  19
OSAGE BEACH    CLOUDY    28  19  69 NW3       30.23R

$$
MOZ051-052-059>065-121400-
...EAST CENTRAL MISSOURI...

CITY           SKY/WX    TMP DP  RH WIND       PRES   REMARKS
ST LOUIS INTL  CLOUDY    27  22  81 NW5       30.24R WCI  22
SPIRIT OF STL  CLOUDY    27  21  80 N3        30.24R
ST CHARLES     CLOUDY    25  21  85 CALM      30.24S

$$
MOZ072>076-082>087-097>100-106>115-121400-
...SOUTH CENTRAL AND SOUTHEAST MISSOURI...

CITY           SKY/WX    TMP DP  RH WIND       PRES   REMARKS
CAPE GIRARDEAU CLOUDY    29  25  85 N7        30.23R WCI  22
POPLAR BLUFF   CLOUDY    31  23  72 N3        30.21S
WEST PLAINS    PTCLDY    23  18  81 CALM      30.20R

$$



USA.gov is the U.S. government's official web portal to all federal, state and local government web resources and services.